Regional Weather Roundup
Issued by NWS

Home | Current Version | Previous Version | Graphics & Text | Print | Product List | Glossary On
Versions: 1 2 3 4 5 6 7 8 9 10 11 12 13 14 15 16 17 18 19 20 21 22 23 24 25 26 27 28 29 30 31 32 33 34 35 36 37 38 39 40 41 42 43 44 45 46 47 48 49 50
000
ASUS43 KTOP 301859
RWRKS

WEATHER ROUNDUP FOR KANSAS
NATIONAL WEATHER SERVICE GOODLAND KS
200 PM CDT TUE SEP 30 2014

NOTE:  "FAIR" INDICATES FEW OR NO CLOUDS BELOW 12,000 FEET WITH NO
SIGNIFICANT WEATHER AND/OR OBSTRUCTIONS TO VISIBILITY.

KSZ001>006-013>018-027>032-041>047-302000-
NORTHWEST KANSAS

CITY           SKY/WX    TMP DP  RH WIND       PRES   REMARKS
GOODLAND       SUNNY     71  42  35 W6        29.81F
HAYS           CLOUDY    75  61  60 S15       29.77F
HILL CITY      MOSUNNY   77  57  50 CALM      29.76F
RUSSELL        PTSUNNY   73  64  73 S14G24    29.76F
$$

KSZ061>065-074>080-084>089-302000-
SOUTHWEST KANSAS

CITY           SKY/WX    TMP DP  RH WIND       PRES   REMARKS
DODGE CITY     PTSUNNY   81  56  42 S10       29.76F
GARDEN CITY    MOSUNNY   75  58  55 VRB6      29.77F
GREAT BEND     PTSUNNY   77  63  61 S21G26    29.76F
LIBERAL        SUNNY     81  52  36 SW9       29.79F
$$

KSZ066>073-081>083-090>101-302000-
SOUTHEAST KANSAS

CITY           SKY/WX    TMP DP  RH WIND       PRES   REMARKS
CHANUTE        SUNNY     82  60  47 S20       29.86F
COFFEYVILLE    SUNNY     84  62  47 S12G21    29.85F
HUTCHINSON     PTSUNNY   82  60  47 S21G29    29.78F
MEDICINE LODGE   N/A     86  58  38 S17G32    29.74F
NEWTON         PTSUNNY   81  59  47 S18G24    29.83F
PARSONS        SUNNY     84  61  45 S9G20     29.87F
WICHITA INTL   PTSUNNY   85  58  39 S21G29    29.79F
WICHITA JABRA  PTSUNNY   84  59  42 S21       29.80F
WICHITA MCCONL MOSUNNY   84  59  43 S21G28    29.80F
WINFIELD       MOSUNNY   87  62  43 S15       29.82F
$$

KSZ007>012-019>026-033>040-048>060-102>105-302000-
NORTHEAST KANSAS

CITY           SKY/WX    TMP DP  RH WIND       PRES   REMARKS
CONCORDIA      CLOUDY    65  65 100 SE10      29.78F
EMPORIA        SUNNY     81  60  48 S18G28    29.83F
LAWRENCE       MOSUNNY   85  59  41 S15G23    29.84F
MANHATTAN      CLOUDY    79  61  53 S10       29.79F
OLATHE IND     SUNNY     83  58  42 S17G24    29.86F
OLATHE EXE     MOSUNNY   82  58  43 S13       29.85F
SALINA         CLOUDY    72  67  84 CALM      29.77F
TOPEKA BILLARD PTSUNNY   86  59  39 S13G25    29.82F
TOPEKA FORBES  MOSUNNY   84  58  40 S18       29.82F
$$


USA.gov is the U.S. government's official web portal to all federal, state and local government web resources and services.